Regional Weather Roundup
Issued by NWS

Home | Current Version | Previous Version | Text Only | Print | Product List | Glossary On
Versions: 1 2 3 4 5 6 7 8 9 10 11 12 13 14 15 16 17 18 19 20 21 22 23 24 25 26 27 28 29 30 31 32 33 34 35 36 37 38 39 40 41 42 43 44 45 46 47 48 49 50
000
ASCA42 TJSJ 171810
RWRPR
PUERTO RICO/U.S. VIRGIN ISLANDS HOURLY WEATHER ROUNDUP
NATIONAL WEATHER SERVICE SAN JUAN PR
200 PM AST SAT AUG 17 2019

PRZ001>002-007>008-010-171900-
PUERTO RICO

CITY           SKY/WX    TMP DP  RH WIND       PRES   REMARKS
SAN JUAN LMM   PTSUNNY   84  77  79 E7        30.03F HX  94
AGUADILLA      PTSUNNY   82  73  74 S15G25    30.05R
CEIBA          MOSUNNY   88  79  74 E9        30.04F HX 102
$$

VIZ001>002-171900-
U.S. VIRGIN ISLANDS

CITY           SKY/WX    TMP DP  RH WIND       PRES   REMARKS
CHARLOTTE AMA  SUNNY     90  73  58 SE15      30.02F HX  98
CHRISTIANSTED  SUNNY     88  73  62 E16       30.02F HX  96
$$

HOURLY WEATHER ROUNDUP FOR THE NEWS MEDIA

CITY           SKY/WX    TMP DP  RH WIND       PRES   REMARKS
ORLANDO        LGT RAIN  80  73  79 W16       30.10S
NEW YORK       FAIR      83  76  79 S8        30.03R HX  91
NEWARK         PTSUNNY   85  70  60 S6        30.01S
CHICAGO        PTSUNNY   73  69  87 SE7       29.87F
HARTFORD       CLOUDY    76  70  82 SE6       30.05S
BOSTON         CLOUDY    73  66  78 E9        30.06F
DALLAS         MOSUNNY   96  71  44 S9G18     29.86F HX 103
PHILADELPHIA   PTSUNNY   88  72  58 SE5       30.00S HX  94
LOS ANGELES    MOSUNNY   73  57  57 SE6       29.92F
WASHINGTON DC  PTSUNNY   88  69  53 SW6       30.00F HX  92


USA.gov is the U.S. government's official web portal to all federal, state and local government web resources and services.